When you browse on this site, cookies collect data to enhance your experience and personalize the content and advertising you see.
Visit our Privacy Policy to learn more. By continuing to use the site, you agree to this use of cookies and data.
  • Em Portugal
  • Lista de países
  • Para 7 dias
  • Temperatura da água
  • Mapas de satélite
  • Mapa do tempo
  • Widgets de tempo
  • user-avatar
    Iniciar Sessão

    Previsão horária em Markuszowa

    Hoje, 20 Março, Quarta-feira

    Tempo Temperatura Precipitação Vento Pressão Humidade
    00:00 +2°C° 0 mm 1 m/s 749 mmHg 76%
    01:00 +2°C° 0 mm 1 m/s 750 mmHg 76%
    02:00 +2°C° 0 mm 1 m/s 750 mmHg 77%
    03:00 +1°C° 0 mm 1 m/s 750 mmHg 78%
    04:00 +1°C° 0 mm 1 m/s 750 mmHg 79%
    05:00 +2°C° 0 mm 1 m/s 751 mmHg 77%
    06:00 +2°C° 0 mm 1 m/s 751 mmHg 75%
    07:00 +3°C° 0 mm 1 m/s 752 mmHg 69%
    08:00 +4°C° 0 mm 1 m/s 752 mmHg 64%
    09:00 +4°C° 0 mm 2 m/s 752 mmHg 60%
    10:00 +6°C° 0 mm 2 m/s 752 mmHg 55%
    11:00 +6°C° 0 mm 2 m/s 752 mmHg 52%
    12:00 +7°C° 0 mm 2 m/s 752 mmHg 48%
    13:00 +8°C° 0 mm 2 m/s 752 mmHg 45%
    14:00 +8°C° 0 mm 2 m/s 752 mmHg 45%
    15:00 +8°C° 0 mm 2 m/s 752 mmHg 44%
    16:00 +8°C° 0 mm 2 m/s 752 mmHg 44%
    17:00 +8°C° 0 mm 1 m/s 752 mmHg 48%
    18:00 +6°C° 0 mm 1 m/s 752 mmHg 53%
    19:00 +4°C° 0 mm 0 m/s 752 mmHg 57%
    20:00 +5°C° 0 mm 1 m/s 753 mmHg 58%
    21:00 +4°C° 0 mm 1 m/s 753 mmHg 59%
    22:00 +4°C° 0 mm 1 m/s 753 mmHg 61%
    23:00 +3°C° 0 mm 1 m/s 753 mmHg 62%

    Amanhã, 21 Março, Quinta-feira

    Tempo Temperatura Precipitação Vento Pressão Humidade
    00:00 +3°C° 0 mm 1 m/s 754 mmHg 63%
    01:00 +3°C° 0 mm 1 m/s 754 mmHg 65%
    02:00 +3°C° 0 mm 1 m/s 753 mmHg 65%
    03:00 +1°C° 0 mm 2 m/s 753 mmHg 66%
    04:00 +1°C° 0 mm 2 m/s 753 mmHg 67%
    05:00 +2°C° 0 mm 2 m/s 753 mmHg 66%
    06:00 +2°C° 0 mm 2 m/s 753 mmHg 65%
    07:00 +3°C° 0 mm 2 m/s 754 mmHg 63%
    08:00 +4°C° 0 mm 3 m/s 754 mmHg 59%
    09:00 +7°C° 0 mm 3 m/s 754 mmHg 54%
    10:00 +8°C° 0 mm 4 m/s 753 mmHg 50%
    11:00 +10°C° 0 mm 4 m/s 753 mmHg 51%
    12:00 +11°C° 0 mm 4 m/s 753 mmHg 52%
    13:00 +11°C° 0 mm 4 m/s 753 mmHg 54%
    14:00 +11°C° 0 mm 4 m/s 752 mmHg 56%
    15:00 +11°C° 0 mm 4 m/s 752 mmHg 58%
    16:00 +12°C° 0 mm 4 m/s 752 mmHg 61%
    17:00 +10°C° 0 mm 3 m/s 752 mmHg 66%
    18:00 +9°C° 0 mm 3 m/s 752 mmHg 72%
    19:00 +8°C° 0 mm 2 m/s 752 mmHg 78%
    20:00 +8°C° 0 mm 2 m/s 752 mmHg 79%
    21:00 +8°C° 0 mm 2 m/s 752 mmHg 80%
    22:00 +9°C° 0 mm 1 m/s 752 mmHg 81%
    23:00 +9°C° 0 mm 1 m/s 752 mmHg 83%

    Depois de amanhã, 22 Março, Sexta-feira

    Tempo Temperatura Precipitação Vento Pressão Humidade
    00:00 +7°C° 0 mm 2 m/s 753 mmHg 85%
    01:00 +7°C° 0 mm 2 m/s 753 mmHg 87%
    02:00 +7°C° 0 mm 2 m/s 752 mmHg 88%
    03:00 +7°C° 0 mm 2 m/s 752 mmHg 89%
    04:00 +7°C° 0 mm 2 m/s 752 mmHg 90%
    05:00 +7°C° 0 mm 2 m/s 752 mmHg 89%
    06:00 +7°C° 0 mm 2 m/s 752 mmHg 88%
    07:00 +7°C° 0 mm 2 m/s 752 mmHg 86%
    08:00 +9°C° 0 mm 3 m/s 752 mmHg 82%
    09:00 +10°C° 0 mm 3 m/s 752 mmHg 78%
    10:00 +12°C° 0 mm 4 m/s 752 mmHg 73%
    11:00 +12°C° 0 mm 3 m/s 752 mmHg 71%
    12:00 +13°C° 0 mm 3 m/s 752 mmHg 69%
    13:00 +14°C° 0 mm 3 m/s 751 mmHg 68%
    14:00 +14°C° 0 mm 3 m/s 751 mmHg 67%
    15:00 +14°C° 0 mm 3 m/s 751 mmHg 67%
    16:00 +14°C° 0 mm 3 m/s 751 mmHg 66%
    17:00 +14°C° 0 mm 2 m/s 751 mmHg 71%
    18:00 +13°C° 0 mm 1 m/s 751 mmHg 76%
    19:00 +11°C° 0 mm 0 m/s 751 mmHg 81%
    20:00 +11°C° 0 mm 0 m/s 751 mmHg 82%
    21:00 +11°C° 0 mm 0 m/s 751 mmHg 82%
    22:00 +11°C° 0 mm 0 m/s 751 mmHg 82%
    23:00 +10°C° 0 mm 0 m/s 751 mmHg 84%

    23 Março, Sábado

    Tempo Temperatura Precipitação Vento Pressão Humidade
    00:00 +10°C° 0 mm 1 m/s 751 mmHg 86%
    01:00 +10°C° 0 mm 1 m/s 751 mmHg 88%
    02:00 +9°C° 0 mm 1 m/s 750 mmHg 88%
    03:00 +9°C° 0 mm 1 m/s 750 mmHg 89%
    04:00 +8°C° 0 mm 1 m/s 750 mmHg 89%
    05:00 +9°C° 0 mm 1 m/s 750 mmHg 87%
    06:00 +8°C° 0 mm 2 m/s 750 mmHg 85%
    07:00 +9°C° 0 mm 2 m/s 750 mmHg 82%
    08:00 +12°C° 0 mm 2 m/s 749 mmHg 74%
    09:00 +13°C° 0 mm 3 m/s 749 mmHg 65%
    10:00 +16°C° 0 mm 3 m/s 749 mmHg 56%
    11:00 +17°C° 0 mm 3 m/s 749 mmHg 53%
    12:00 +18°C° 0 mm 4 m/s 748 mmHg 51%
    13:00 +19°C° 0 mm 4 m/s 748 mmHg 48%
    14:00 +19°C° 0 mm 4 m/s 748 mmHg 49%
    15:00 +19°C° 0 mm 4 m/s 747 mmHg 49%
    16:00 +18°C° 0 mm 4 m/s 747 mmHg 50%
    17:00 +17°C° 0 mm 4 m/s 747 mmHg 55%
    18:00 +14°C° 0 mm 3 m/s 747 mmHg 61%
    19:00 +13°C° 0 mm 2 m/s 747 mmHg 66%
    20:00 +13°C° 0 mm 2 m/s 748 mmHg 69%
    21:00 +12°C° 0 mm 2 m/s 748 mmHg 72%
    22:00 +10°C° 0 mm 2 m/s 748 mmHg 75%
    23:00 +11°C° 0 mm 1 m/s 748 mmHg 78%

    24 Março, Domingo

    Tempo Temperatura Precipitação Vento Pressão Humidade
    00:00 +11°C° 0 mm 1 m/s 748 mmHg 81%
    01:00 +11°C° 0 mm 1 m/s 748 mmHg 84%
    02:00 +9°C° 0 mm 2 m/s 748 mmHg 86%
    03:00 +9°C° 0 mm 2 m/s 748 mmHg 87%
    04:00 +9°C° 0 mm 2 m/s 748 mmHg 89%
    05:00 +9°C° 0.1 mm 2 m/s 749 mmHg 87%
    06:00 +8°C° 0.1 mm 3 m/s 749 mmHg 84%
    07:00 +8°C° 0.1 mm 3 m/s 749 mmHg 81%
    08:00 +8°C° 0 mm 3 m/s 749 mmHg 75%
    09:00 +8°C° 0 mm 2 m/s 749 mmHg 69%
    10:00 +8°C° 0 mm 2 m/s 749 mmHg 63%
    11:00 +10°C° 0 mm 2 m/s 748 mmHg 60%
    12:00 +12°C° 0 mm 2 m/s 748 mmHg 57%
    13:00 +13°C° 0 mm 2 m/s 747 mmHg 54%
    14:00 +13°C° 0 mm 2 m/s 747 mmHg 53%
    15:00 +13°C° 0 mm 2 m/s 746 mmHg 51%
    16:00 +13°C° 0 mm 2 m/s 746 mmHg 50%
    17:00 +12°C° 0 mm 2 m/s 746 mmHg 51%
    18:00 +10°C° 0 mm 2 m/s 745 mmHg 52%
    19:00 +10°C° 0 mm 1 m/s 745 mmHg 53%
    20:00 +9°C° 0 mm 1 m/s 745 mmHg 54%
    21:00 +8°C° 0 mm 1 m/s 745 mmHg 55%
    22:00 +8°C° 0 mm 1 m/s 744 mmHg 56%
    23:00 +7°C° 0 mm 1 m/s 744 mmHg 59%

    25 Março, Segunda-feira

    Tempo Temperatura Precipitação Vento Pressão Humidade
    00:00 +7°C° 0 mm 1 m/s 743 mmHg 63%
    01:00 +7°C° 0 mm 1 m/s 743 mmHg 66%
    02:00 +7°C° 0 mm 1 m/s 742 mmHg 71%
    03:00 +7°C° 0 mm 1 m/s 742 mmHg 76%
    04:00 +7°C° 0 mm 1 m/s 741 mmHg 81%
    05:00 +6°C° 0 mm 2 m/s 741 mmHg 81%
    06:00 +7°C° 0 mm 2 m/s 741 mmHg 81%
    07:00 +8°C° 0 mm 2 m/s 741 mmHg 82%
    08:00 +9°C° 0 mm 3 m/s 740 mmHg 73%
    09:00 +10°C° 0 mm 4 m/s 740 mmHg 64%
    10:00 +10°C° 0 mm 6 m/s 739 mmHg 55%
    11:00 +10°C° 0 mm 6 m/s 739 mmHg 55%
    12:00 +10°C° 0 mm 7 m/s 738 mmHg 55%
    13:00 +10°C° 0 mm 8 m/s 737 mmHg 55%
    14:00 +10°C° 0 mm 8 m/s 737 mmHg 53%
    15:00 +10°C° 0 mm 8 m/s 736 mmHg 51%
    16:00 +9°C° 0 mm 8 m/s 736 mmHg 49%
    17:00 +8°C° 0 mm 7 m/s 736 mmHg 53%
    18:00 +7°C° 0 mm 6 m/s 736 mmHg 57%
    19:00 +6°C° 0 mm 5 m/s 736 mmHg 61%
    20:00 +5°C° 0.2 mm 5 m/s 736 mmHg 62%
    21:00 +3°C° 0.2 mm 6 m/s 736 mmHg 62%
    22:00 +2°C° 0.2 mm 6 m/s 737 mmHg 63%
    23:00 +2°C° 0 mm 6 m/s 737 mmHg 66%
    Mostrar mais